RH
100 100 100 95 89 82 81 99 82 76 82 90 62 45 30 34 50 52 36 11 9 8 5 4 4 4 5 7 5 4 4 6 7 8 12 24 30 30 25 20 19 23 24 24
100 100 100 94 95 73 90 98 90 79 83 82 59 42 29 35 49 56 45 13 9 8 4 4 3 4 5 6 6 4 5 8 9 10 17 27 28 32 33 30 27 25 26 28
100 100 100 97 88 69 98 85 88 85 89 74 57 43 32 35 64 57 55 29 9 8 6 4 4 5 5 6 8 5 5 9 14 15 16 28 29 30 30 29 30 33 34 26
100 100 100 87 83 69 100 95 89 78 89 73 55 42 34 40 63 55 63 50 12 10 8 5 4 5 6 6 9 9 6 9 13 22 27 32 34 34 36 36 35 38 36 33
100 100 100 84 82 80 100 97 86 82 91 73 48 41 37 44 59 57 73 56 21 14 10 7 5 5 6 7 7 12 9 7 16 19 26 29 32 34 33 38 42 44 40 39
100 100 100 76 75 93 94 99 76 83 80 70 43 44 45 49 56 49 57 65 40 19 16 14 6 6 6 6 7 13 14 10 9 18 23 24 31 35 35 33 35 42 46 37
100 100 91 86 82 98 96 99 81 85 85 63 46 45 42 41 47 43 52 56 60 26 20 18 13 6 7 7 7 9 17 16 12 12 18 26 32 38 39 38 40 45 46 48
100 100 87 84 94 94 100 90 86 79 83 51 50 47 41 36 43 42 46 57 56 64 27 23 25 11 6 8 8 9 11 18 20 15 14 18 26 38 43 49 59 61 58 62
100 100 91 90 95 92 100 88 87 87 73 52 53 49 44 40 45 46 43 54 52 65 63 27 27 27 11 8 9 10 10 16 21 22 19 16 18 28 33 38 47 55 58 54
100 100 95 94 98 98 99 85 81 90 63 57 57 56 46 47 44 48 42 51 52 62 73 53 35 30 29 10 10 10 11 11 17 24 24 23 21 22 26 33 44 39 40 44
100 100 100 92 100 96 93 83 80 80 59 67 65 65 54 52 45 52 43 51 54 67 72 64 44 29 25 24 8 11 13 14 14 18 27 28 27 29 31 32 29 31 40 42
100 100 100 96 97 93 92 75 90 72 63 74 67 64 58 52 50 55 51 46 47 67 78 69 50 28 21 26 11 10 12 15 16 17 25 28 31 29 28 31 35 38 38 36
100 100 100 100 91 98 89 92 85 66 62 66 61 79 63 60 55 53 49 44 48 58 71 67 59 33 25 16 17 8 11 14 17 20 26 30 33 37 36 34 35 34 35 38
100 100 100 100 98 88 98 100 83 62 67 63 70 80 66 65 56 61 55 46 48 48 66 73 57 36 24 17 14 8 10 14 17 19 25 32 35 43 46 43 40 41 43 43
100 100 100 99 89 97 100 88 80 71 71 64 74 85 71 64 57 59 59 51 48 49 62 73 51 32 24 23 13 8 9 13 16 21 23 30 36 43 51 55 55 52 54 56
100 100 100 97 100 100 96 97 96 96 81 74 85 87 75 68 57 62 70 52 49 51 58 73 54 33 25 18 13 7 8 15 17 19 21 26 32 41 47 57 68 70 70 77
99 99 100 100 100 100 93 100 100 100 75 81 72 70 93 76 61 64 70 53 55 57 57 71 60 41 25 18 10 9 7 8 15 17 21 23 24 32 42 52 62 72 80 84
99 100 100 100 100 100 100 100 100 98 95 83 74 80 79 64 71 74 65 57 57 58 56 66 56 44 25 17 8 9 8 7 9 15 17 22 22 24 25 32 42 51 60 70
100 100 100 100 100 100 100 100 100 100 99 69 89 92 70 72 91 89 59 58 57 64 54 59 47 38 30 17 7 7 7 8 8 14 16 18 22 23 22 22 24 33 40 52
100 100 100 100 100 100 100 100 100 100 99 74 74 78 72 82 97 77 56 65 65 72 56 55 52 31 29 16 8 6 6 8 8 10 16 18 20 23 25 23 21 22 28 37
100 100 100 100 100 100 100 100 98 100 100 77 73 77 75 77 75 63 71 64 63 52 56 56 58 23 28 15 7 6 6 7 9 10 13 18 20 21 23 25 27 27 26 27
100 100 100 100 100 99 100 100 100 100 82 66 69 69 74 74 71 74 62 72 72 56 54 55 67 20 30 19 7 6 6 6 7 11 13 16 18 20 21 23 25 26 26 27
100 100 100 100 100 100 100 100 100 95 78 55 73 74 81 70 70 71 56 82 65 62 54 55 70 26 39 30 7 6 6 6 6 7 13 17 19 20 20 22 23 24 25 25
100 100 100 100 100 100 100 100 100 100 78 66 72 82 72 64 81 62 64 71 71 57 54 74 70 34 53 35 7 6 6 6 7 7 8 15 21 20 21 22 24 24 24 23
100 100 100 100 100 100 100 95 88 86 76 88 100 90 87 89 74 73 76 66 61 65 55 67 68 39 38 31 7 6 6 6 6 7 8 10 17 22 23 21 21 22 23 24
96 100 100 100 100 100 100 100 100 90 91 100 96 90 89 80 80 81 78 64 59 65 61 68 69 26 37 53 8 6 6 6 6 6 7 8 13 19 23 25 24 24 23 24
100 100 100 100 100 100 100 100 99 94 100 100 92 84 92 94 91 80 74 62 66 60 71 73 54 27 18 26 7 7 7 6 6 6 6 6 9 14 18 20 22 23 22 22
Wind_Speed
36 40 38 38 41 43 46 52 56 59 64 67 73 79 83 92 100 107 105 95 90 82 70 57 43 32 19 11 6 4 12 19 23 25 30 38 46 50 55 59 62 64 66 66
38 39 37 39 41 44 43 50 57 59 62 65 71 78 82 89 96 104 108 90 84 80 69 55 44 33 22 11 6 5 13 20 23 31 37 42 47 50 52 54 58 61 63 64
36 40 40 40 41 44 43 48 55 57 59 62 69 75 81 88 96 103 106 98 87 79 71 57 45 34 24 12 6 4 12 23 29 34 40 44 46 50 53 56 57 59 61 64
40 41 41 41 42 42 43 48 54 57 59 62 68 72 80 87 94 98 104 105 85 81 70 60 50 37 26 15 6 4 9 22 30 35 40 44 46 48 51 53 57 58 62 61
38 42 44 42 40 39 43 48 53 55 57 62 66 71 78 84 91 93 104 106 90 87 79 62 52 42 31 18 7 4 8 16 26 33 40 44 46 48 51 53 53 56 58 60
39 42 46 41 39 40 43 48 53 55 55 61 63 70 77 84 90 89 94 101 92 85 77 73 55 44 35 23 9 5 6 12 21 30 35 39 42 46 46 49 51 52 53 56
40 43 45 39 38 40 42 49 52 53 56 61 65 69 75 82 87 89 92 97 106 85 79 77 68 48 38 28 16 5 6 9 15 24 31 35 36 38 42 44 45 48 51 50
40 44 42 37 38 38 42 49 51 53 57 61 66 70 74 79 85 88 94 99 108 105 89 83 71 58 39 31 20 9 7 9 12 19 26 31 36 38 41 42 42 45 46 47
42 41 40 37 39 38 43 49 50 52 57 61 67 73 77 81 85 90 96 101 107 113 105 88 76 63 52 33 26 14 9 10 12 15 20 25 31 36 38 41 44 46 49 50
38 39 39 39 38 40 45 48 47 53 58 60 66 72 76 81 84 89 91 99 106 104 109 95 83 69 62 39 25 21 14 11 12 14 16 19 23 30 34 37 41 43 45 46
38 40 41 40 40 42 45 46 47 53 58 59 64 71 77 81 85 90 92 99 103 106 106 97 81 74 61 48 28 21 19 16 15 14 16 19 21 22 24 29 35 37 41 42
38 39 40 42 44 43 43 44 48 53 55 58 64 71 76 78 84 91 93 96 97 107 107 104 85 75 63 50 33 24 20 19 18 17 17 19 22 23 24 25 27 26 27 30
36 38 41 44 44 44 43 45 50 54 53 58 65 71 77 80 85 89 96 98 100 105 103 104 90 78 65 53 36 25 21 20 21 21 21 22 22 24 25 25 23 24 23 24
38 38 42 45 46 43 44 47 53 55 56 60 64 71 75 80 86 91 95 96 100 107 111 111 93 81 66 56 40 26 22 22 23 23 24 24 24 24 27 28 28 27 26 26
38 40 43 45 46 44 46 52 55 55 59 63 65 72 76 80 86 91 96 97 102 105 110 111 93 76 71 60 46 28 22 21 25 27 28 27 27 27 27 29 30 29 28 28
39 39 41 45 46 47 53 53 54 56 62 63 67 72 76 83 86 91 97 100 102 105 106 114 97 78 73 63 45 27 19 19 23 30 32 30 30 30 30 29 30 30 30 30
37 36 40 45 50 52 57 57 59 62 63 63 71 75 78 84 88 91 98 101 104 109 107 111 96 80 70 72 45 27 27 28 24 26 32 34 33 33 33 32 31 32 31 32
35 37 43 47 51 56 56 58 65 64 64 68 72 77 80 86 89 94 100 102 103 109 109 108 91 80 78 71 48 27 29 29 28 27 30 34 36 36 36 36 35 34 34 34
38 39 44 49 51 55 56 62 67 68 67 70 73 79 83 87 91 97 100 104 106 109 110 108 97 79 70 68 51 35 26 30 29 26 28 31 34 37 38 38 37 37 37 35
39 41 46 51 56 58 56 61 70 72 69 73 77 82 85 88 93 99 101 107 109 110 109 106 104 72 69 68 53 39 28 28 33 28 28 31 34 35 37 39 39 39 38 39
41 44 49 52 54 57 62 67 72 74 71 76 78 84 86 90 95 100 104 108 111 117 113 112 111 76 72 66 52 42 32 27 32 34 30 31 34 36 36 37 39 40 40 41
45 48 51 56 62 62 67 71 75 78 75 77 80 86 89 95 98 102 106 109 114 118 117 116 122 78 71 70 56 45 38 31 29 33 34 32 34 35 37 38 39 40 41 41
50 53 57 63 62 67 73 77 80 81 78 79 83 89 93 97 100 105 107 111 117 119 114 122 125 87 84 75 58 48 40 37 32 32 35 35 35 36 37 38 40 40 41 42
52 55 60 62 66 72 76 79 81 82 82 83 87 93 96 100 103 108 110 113 118 124 120 126 120 90 87 74 60 50 43 38 35 32 34 38 38 38 38 39 40 41 41 42
56 57 63 67 72 78 83 85 85 81 84 86 90 95 99 103 106 109 112 116 120 124 127 122 118 93 81 74 60 54 45 39 37 34 34 38 40 40 40 40 41 41 41 41
60 63 66 73 77 81 86 88 87 86 88 88 93 97 102 105 108 111 115 119 122 125 128 126 117 89 82 80 60 53 48 41 37 36 35 37 40 40 40 40 40 41 40 40
63 70 77 81 83 84 87 89 86 87 89 94 98 103 103 105 110 114 117 121 124 124 127 130 110 93 72 75 59 51 48 43 38 37 37 37 39 41 40 40 39 40 41 40
Wind_Direction
273 282 287 298 305 310 316 318 323 329 335 336 339 342 353 355 359 357 4 2 357 356 358 360 360 358 358 353 326 197 168 175 179 186 182 181 195 198 200 204 206 209 214 215
272 278 287 294 302 308 315 318 323 330 333 334 340 345 353 358 359 357 0 6 360 360 1 2 2 3 358 348 337 238 169 167 169 171 174 185 193 195 199 203 208 212 215 216
269 278 283 292 297 306 314 317 321 328 332 335 342 347 354 358 359 360 359 6 4 4 5 3 360 6 2 350 327 239 182 168 173 183 185 186 194 197 200 203 207 211 217 219
267 275 280 288 297 306 311 317 321 328 332 337 343 348 355 359 359 3 1 3 6 5 7 7 2 3 5 357 328 260 196 182 180 181 184 191 197 198 200 205 208 211 218 220
264 273 279 290 298 305 309 313 319 326 331 336 342 350 355 358 360 6 7 5 7 8 11 10 5 360 2 359 329 262 214 212 191 190 192 196 199 202 202 205 210 214 220 225
261 271 275 287 294 301 306 314 318 325 329 335 341 351 354 356 358 4 5 3 8 5 9 11 7 4 359 359 346 291 247 220 213 201 202 205 204 207 209 212 215 218 223 229
264 269 278 286 293 298 307 312 318 323 330 334 344 351 354 356 356 3 6 6 5 6 10 10 9 4 1 355 348 297 238 233 226 216 211 210 211 211 215 216 219 222 226 230
264 268 277 285 291 300 308 310 317 322 328 335 344 349 351 356 357 1 7 8 7 9 5 5 8 4 2 356 344 317 280 244 221 230 224 219 213 214 217 216 218 223 227 230
265 271 277 283 291 301 305 310 316 324 327 338 344 347 350 353 355 0 4 6 6 6 6 3 5 2 359 353 343 322 292 265 240 232 230 228 222 220 223 223 224 225 227 229
263 271 278 283 290 298 303 311 316 323 329 340 343 344 348 351 354 358 0 2 5 5 3 2 1 0 358 347 339 322 293 266 253 237 233 227 222 223 227 227 228 233 235 237
264 272 276 283 290 296 303 311 318 321 331 339 342 341 346 348 352 356 357 1 4 2 2 0 356 353 352 350 332 318 295 275 260 247 235 228 224 221 225 228 232 237 238 240
261 269 277 283 290 297 302 310 317 322 333 337 340 338 344 346 348 351 354 357 1 1 2 357 354 352 353 352 333 313 297 276 262 259 251 245 238 232 226 226 227 228 230 231
262 271 276 284 291 296 303 311 314 324 331 333 338 335 340 343 345 348 353 354 359 358 359 358 352 352 349 348 339 314 293 271 259 251 250 249 248 245 241 237 235 231 231 231
263 273 279 284 288 298 305 307 314 322 329 330 334 333 337 339 342 346 349 352 356 356 360 356 349 349 347 345 341 313 290 273 259 250 250 250 250 249 246 244 240 238 236 235
265 271 278 283 292 300 300 306 316 325 327 329 331 331 333 336 339 342 346 350 351 352 357 357 349 347 346 344 339 318 298 280 258 244 242 242 245 246 245 243 246 244 242 243
266 274 280 287 292 293 300 311 314 315 320 329 327 328 330 333 338 340 342 346 347 350 356 354 348 346 342 343 341 319 291 268 257 249 242 238 239 241 244 244 243 244 243 243
266 273 282 282 288 294 303 307 308 310 317 321 325 328 329 330 335 337 339 343 346 347 355 356 349 342 338 342 342 313 295 276 259 247 245 240 235 236 238 240 241 241 242 243
269 275 277 284 288 294 300 299 300 308 315 316 323 326 326 329 332 333 337 340 344 346 351 354 351 340 338 339 340 321 293 288 272 255 242 241 240 237 237 237 239 240 240 240
267 274 277 283 289 292 292 296 303 308 312 317 321 322 324 328 329 331 334 337 342 343 348 352 353 341 344 339 338 327 299 285 275 264 250 244 243 243 240 241 241 242 243 245
266 270 273 283 288 291 291 294 296 301 305 316 317 321 324 326 327 329 333 335 339 340 344 351 348 338 337 337 333 330 312 282 276 268 254 246 243 242 245 246 246 246 246 247
262 264 273 279 283 287 291 293 296 301 306 310 317 320 321 324 325 328 331 332 336 341 343 348 347 339 337 336 329 326 315 292 272 269 260 249 245 244 244 244 244 247 249 249
263 268 273 278 282 290 292 293 294 297 303 311 317 317 320 322 323 327 329 331 333 337 341 346 345 341 334 337 330 325 316 298 274 263 265 258 250 247 245 243 244 244 245 247
265 269 275 281 285 286 287 289 294 298 305 311 314 316 317 320 322 324 326 329 330 334 338 343 344 339 339 340 329 326 318 304 285 269 257 258 255 252 251 250 248 247 246 247
267 270 278 281 281 282 285 289 294 298 304 310 312 314 316 317 320 321 324 326 329 331 336 337 344 336 342 339 328 325 318 307 293 278 266 258 255 252 252 251 252 252 251 249
269 274 277 280 280 282 285 290 294 299 305 307 308 311 312 314 318 319 321 325 326 329 332 336 340 335 337 339 326 321 318 309 298 280 269 259 256 255 253 254 253 251 251 252
273 276 274 273 275 279 285 288 292 300 304 306 307 308 310 314 315 317 319 322 325 327 331 334 335 330 337 339 325 320 316 310 299 286 271 261 256 255 256 255 257 258 257 255
267 266 267 272 278 281 283 286 293 299 300 302 304 306 309 310 312 314 317 320 323 328 329 333 331 326 330 330 323 319 315 309 299 287 277 266 256 254 253 255 257 256 257 258